Tracking 29892 objects as of 21-Nov-2024
HD Live streaming from Space Station
objects crossing your sky now

DELTA 1 DEB

Track DELTA 1 DEB now!
10-day predictions


NORAD ID: 12206
Int'l Code: 1978-026AX
Perigee: 776.4 km
Apogee: 1,012.5 km
Inclination: 99.0 °
Period: 102.7 minutes
Semi major axis: 7265 km
RCS: 0.0127 m2 (small)
Launch date: March 5, 1978
Source: United States (US)
Launch site: AIR FORCE WESTERN TEST RANGE (AFWTR)

Note: This is SATELLITE DEBRIS
Your satellite tracking list
Your tracking list is empty




NASA's NSSDC Master Catalog

Two Line Element Set (TLE):
1 12206U 78026AX  24325.73928860  .00003321  00000-0  19702-2 0  9993
2 12206  98.9621  76.8820 0162496 243.8522 114.5851 14.01880734220569
Source of the keplerian elements: AFSPC